Temp
71 76 77 77 75 75 76 78 79 78 74 73 73 72 72 72 74 74 72 72 72 71 71 71 73 73 72 71 70 68 67 68 66 69 71 73 73 75 79 81 79 78 74
74 77 77 77 78 78 77 77 78 81 78 76 74 74 74 75 75 75 74 74 72 71 72 71 71 73 73 72 71 70 69 68 68 67 69 72 73 74 78 78 79 81 75
79 79 79 78 76 75 76 77 78 77 78 77 76 75 75 75 75 75 75 74 73 72 71 71 70 69 70 71 71 71 70 72 69 68 68 70 72 71 71 73 76 79 76
75 75 73 72 73 73 73 73 74 75 74 75 76 77 75 76 76 77 76 73 73 70 69 69 70 71 72 71 71 71 71 70 69 67 68 68 68 71 70 69 69 71 71
74 73 73 73 74 74 74 75 75 75 75 75 75 75 75 74 76 74 75 72 69 68 68 67 71 73 74 72 73 71 70 69 69 68 68 67 68 69 69 70 71 72 71
72 70 71 71 71 71 72 72 73 73 74 74 74 74 74 75 71 70 70 70 69 66 67 69 72 75 74 70 71 71 70 69 68 67 73 67 72 69 69 70 70 66 67
69 68 68 69 68 68 69 69 69 70 71 71 72 72 73 74 71 69 70 70 70 69 68 69 68 76 72 71 70 70 69 69 70 70 68 70 70 70 72 69 69 70 75
66 65 66 66 66 66 66 66 67 67 67 68 69 70 70 72 68 68 69 70 68 67 67 68 68 71 70 69 71 71 71 72 71 71 71 73 73 72 71 75 71 71 70
64 64 64 64 63 63 63 63 64 64 64 65 66 67 67 68 65 66 67 69 68 69 70 71 71 71 69 67 68 70 69 70 69 67 68 69 70 70 71 68 68 67 69
63 64 64 64 62 62 63 62 62 62 62 63 63 63 65 62 64 63 63 67 66 67 69 69 66 65 62 62 66 67 67 68 69 70 68 67 67 69 69 71 71 68 68
63 64 64 64 64 64 62 61 62 62 62 61 61 61 60 60 60 61 62 63 64 65 65 66 66 62 59 59 60 65 65 67 68 68 68 69 71 70 70 70 71 71 70
63 64 64 64 66 66 62 61 62 60 59 58 58 59 60 60 60 60 60 60 63 61 62 66 65 60 57 58 58 61 61 62 63 64 65 66 66 67 70 71 72 72 72
63 62 62 63 63 63 61 60 59 58 58 57 57 55 56 59 59 59 58 59 60 58 59 60 59 58 58 60 62 62 62 61 61 63 64 65 66 67 68 68 70 72 73
60 60 60 60 59 59 60 60 59 59 58 58 57 56 55 56 57 57 56 55 57 56 56 53 56 58 58 59 59 60 61 62 62 64 65 68 68 67 67 69 68 69 69
59 59 58 58 57 57 58 59 60 58 58 58 57 56 56 57 60 51 48 50 49 49 50 52 54 55 56 57 57 60 62 62 63 65 66 66 66 67 67 68 68 68 67
58 58 57 57 57 57 57 58 57 56 55 52 51 52 56 55 50 47 44 44 46 47 52 53 54 55 57 57 58 59 60 62 61 62 63 64 65 66 66 67 67 67 66
58 58 57 57 57 57 57 56 57 59 57 53 52 53 49 49 48 45 45 46 46 50 55 57 57 57 58 58 59 59 59 61 61 60 60 61 62 64 64 65 65 65 65
57 57 57 57 57 57 57 57 57 56 56 57 57 55 50 49 47 45 47 51 57 56 53 54 57 59 59 58 58 57 58 59 59 59 60 60 60 60 60 61 63 62 63
58 57 57 57 57 57 57 58 59 57 56 54 54 55 53 51 50 49 50 53 52 52 51 51 51 53 55 56 57 57 58 57 56 57 57 58 58 58 59 59 59 55 55
59 61 59 57 57 57 56 57 56 55 54 53 53 54 54 54 54 52 53 53 52 52 51 51 51 50 50 56 53 53 53 53 53 53 54 55 56 57 57 57 58 59 59
58 59 62 57 57 56 57 56 55 55 54 54 54 55 53 54 53 53 53 53 53 53 53 52 51 50 50 50 51 49 49 50 50 50 51 51 52 55 57 57 58 59 58
59 59 58 58 57 57 56 56 55 55 55 55 54 56 52 54 54 54 54 54 54 53 53 53 52 52 51 50 50 49 47 46 47 49 49 49 51 52 53 55 56 57 58
59 59 57 56 58 58 56 56 56 57 56 55 55 56 55 54 54 53 54 54 54 54 53 53 52 53 52 51 51 49 46 45 44 46 46 47 48 50 51 52 54 56 56
60 59 58 57 57 57 56 57 56 54 56 56 55 55 54 54 54 55 54 54 54 55 53 52 52 53 51 50 47 44 43 39 40 44 44 44 46 48 50 51 53 55 56
59 60 59 58 58 57 58 56 55 56 56 56 55 55 54 54 53 54 53 54 54 53 53 52 51 51 50 47 46 44 39 33 36 38 40 42 44 46 49 53 54 54 55
60 59 58 57 58 58 56 56 55 55 55 55 55 53 52 52 52 53 53 53 53 53 53 52 51 50 48 46 44 39 34 34 35 33 36 40 45 49 51 52 53 53 53
MSLP
1012.13 1012.23 1012.66 1012.69 1013.01 1013.40 1013.83 1013.81 1013.63 1013.98 1014.46 1014.57 1014.50 1014.35 1014.50 1014.70 1015.12 1015.19 1015.42 1015.41 1015.65 1015.89 1015.97 1016.11 1016.19 1016.25 1016.38 1016.63 1016.85 1017.30 1017.70 1017.93 1018.03 1017.27 1017.01 1016.27 1016.48 1016.53 1016.27 1016.33 1016.41 1016.72 1017.27
1011.34 1011.41 1011.83 1012.07 1012.41 1012.75 1013.03 1013.33 1013.32 1013.21 1013.25 1013.54 1013.57 1013.89 1014.06 1014.15 1014.19 1014.43 1014.66 1014.94 1015.25 1015.44 1015.42 1015.56 1015.64 1015.87 1015.89 1015.87 1016.17 1016.37 1016.56 1016.92 1017.26 1017.15 1016.74 1016.45 1016.17 1015.84 1015.68 1015.99 1015.93 1016.18 1016.79
1010.47 1010.96 1011.38 1011.62 1011.97 1012.23 1012.47 1012.67 1012.87 1012.82 1012.72 1012.81 1013.00 1013.10 1013.15 1013.15 1013.49 1013.71 1013.88 1014.23 1014.61 1014.76 1015.10 1015.42 1015.32 1015.56 1015.71 1015.69 1015.67 1015.86 1015.88 1016.00 1016.48 1016.86 1016.52 1016.25 1015.89 1015.85 1015.74 1015.85 1015.87 1015.80 1016.08
1010.64 1011.13 1011.45 1011.63 1011.82 1011.99 1012.14 1012.31 1012.47 1012.36 1012.26 1012.32 1012.35 1012.29 1012.35 1012.62 1012.89 1013.05 1013.24 1013.27 1013.97 1014.81 1015.54 1015.71 1015.24 1014.96 1015.22 1015.28 1015.33 1015.27 1015.27 1015.57 1015.90 1016.34 1016.33 1016.29 1016.23 1015.55 1015.59 1015.75 1015.97 1015.79 1015.66
1011.26 1011.57 1011.71 1011.68 1011.81 1011.86 1011.97 1012.03 1012.05 1012.04 1011.89 1011.74 1011.85 1011.89 1011.97 1012.27 1012.35 1012.44 1012.42 1013.01 1014.06 1013.95 1014.14 1013.75 1014.03 1014.42 1014.09 1014.45 1014.73 1014.70 1014.81 1015.00 1015.23 1015.68 1015.84 1015.74 1015.68 1015.63 1015.54 1015.35 1015.42 1015.41 1015.41
1012.05 1012.33 1012.33 1012.15 1012.36 1012.51 1012.51 1012.56 1012.48 1012.31 1012.13 1012.00 1012.00 1012.03 1011.93 1011.92 1011.66 1011.83 1012.50 1012.80 1012.84 1012.01 1013.31 1012.19 1012.71 1013.62 1013.58 1014.07 1013.81 1013.88 1013.95 1014.34 1014.60 1015.09 1015.01 1015.00 1014.51 1014.68 1014.71 1014.97 1015.10 1015.51 1015.47
1012.75 1013.05 1013.04 1012.99 1013.04 1013.15 1012.97 1012.93 1012.91 1012.91 1012.65 1012.53 1012.40 1012.31 1012.16 1011.98 1011.93 1011.89 1012.06 1012.37 1012.59 1012.51 1012.17 1011.88 1012.71 1013.25 1013.39 1013.44 1013.25 1013.35 1013.44 1013.40 1013.33 1013.82 1014.27 1014.25 1014.11 1013.82 1013.88 1014.32 1014.39 1014.19 1013.69
1013.30 1013.40 1013.45 1013.44 1013.43 1013.32 1013.22 1013.26 1013.22 1013.20 1013.22 1013.08 1012.95 1012.80 1012.61 1012.28 1011.97 1011.96 1012.07 1012.24 1012.29 1012.26 1012.29 1012.41 1012.69 1012.81 1012.87 1012.98 1012.97 1013.08 1012.95 1012.63 1012.51 1013.02 1013.25 1013.17 1012.93 1012.82 1013.31 1013.13 1013.17 1013.29 1013.33
1013.75 1013.70 1013.69 1013.64 1013.68 1013.65 1013.63 1013.62 1013.52 1013.50 1013.50 1013.47 1013.32 1013.08 1012.89 1012.72 1012.48 1012.23 1012.22 1012.29 1012.40 1012.25 1012.20 1012.20 1012.29 1012.35 1012.43 1012.62 1012.84 1012.67 1012.45 1012.06 1011.45 1011.75 1012.00 1011.74 1011.77 1011.74 1012.19 1012.81 1013.01 1013.41 1012.74
1013.96 1013.91 1013.87 1013.86 1013.96 1013.88 1013.87 1013.87 1013.79 1013.85 1013.95 1013.69 1013.53 1013.37 1013.39 1013.45 1013.01 1012.57 1012.27 1012.48 1012.59 1012.48 1012.23 1012.02 1012.25 1012.41 1012.47 1012.50 1012.46 1012.40 1012.22 1011.78 1011.64 1011.76 1011.95 1011.84 1011.58 1011.41 1011.47 1011.96 1012.05 1012.11 1011.93
1013.93 1013.92 1013.89 1013.87 1013.87 1013.83 1013.98 1014.01 1014.01 1014.08 1014.12 1014.17 1014.19 1014.11 1013.95 1013.74 1013.54 1013.18 1012.97 1012.90 1012.82 1012.59 1012.42 1012.33 1012.42 1012.45 1012.34 1012.27 1012.26 1012.08 1011.83 1011.49 1011.44 1011.51 1011.36 1011.16 1010.87 1010.71 1010.62 1010.67 1010.83 1010.87 1010.70
1013.95 1014.09 1014.01 1013.88 1013.78 1013.79 1014.10 1014.17 1014.21 1014.29 1014.40 1014.47 1014.47 1014.38 1014.19 1014.01 1013.85 1013.68 1013.47 1013.25 1013.03 1012.92 1012.80 1012.47 1012.27 1012.15 1011.90 1011.72 1011.56 1011.29 1011.27 1011.35 1011.26 1011.14 1010.89 1010.54 1010.33 1010.06 1009.74 1009.59 1009.42 1009.32 1008.97
1014.16 1014.21 1014.09 1014.05 1014.11 1014.11 1014.19 1014.45 1014.71 1014.58 1014.61 1014.92 1014.98 1014.91 1014.74 1014.47 1014.22 1014.08 1013.85 1013.60 1013.38 1013.21 1012.95 1012.67 1012.29 1011.85 1011.53 1011.24 1010.91 1010.73 1010.65 1010.71 1010.84 1010.89 1010.56 1010.10 1009.77 1009.39 1009.24 1009.00 1008.58 1008.09 1007.77
1014.56 1014.61 1014.51 1014.48 1014.62 1014.57 1014.39 1014.52 1014.72 1014.69 1014.91 1015.12 1015.20 1015.23 1014.99 1014.80 1014.57 1014.25 1014.02 1013.71 1013.37 1013.13 1012.96 1012.63 1012.31 1011.95 1011.58 1011.23 1010.83 1010.35 1010.17 1010.19 1010.33 1010.11 1009.75 1009.26 1008.92 1008.68 1008.37 1008.07 1007.84 1007.40 1007.06
1014.79 1014.91 1014.85 1014.84 1014.89 1014.87 1014.79 1014.72 1014.77 1014.85 1014.89 1014.98 1015.11 1015.32 1015.26 1015.04 1014.82 1014.73 1014.47 1014.11 1013.87 1013.75 1013.45 1012.87 1012.45 1012.14 1011.80 1011.42 1011.11 1010.71 1010.31 1010.18 1010.05 1009.67 1009.28 1008.67 1008.22 1008.05 1007.75 1007.36 1007.08 1006.65 1006.19
1014.96 1015.08 1015.06 1015.09 1015.04 1014.99 1014.93 1014.85 1014.71 1014.73 1014.68 1014.72 1014.87 1015.03 1015.07 1015.10 1014.89 1014.41 1014.16 1013.99 1013.86 1013.79 1013.69 1013.51 1013.15 1012.77 1012.45 1012.05 1011.60 1011.07 1010.67 1010.39 1010.05 1009.66 1009.21 1008.59 1007.94 1007.43 1007.07 1006.73 1006.51 1006.14 1005.50
1014.86 1015.04 1015.24 1015.27 1015.28 1015.25 1015.19 1015.17 1015.23 1015.23 1014.99 1014.97 1014.94 1014.96 1015.09 1015.18 1015.07 1014.75 1014.42 1014.25 1014.05 1013.77 1014.00 1013.87 1013.60 1013.27 1012.91 1012.49 1012.02 1011.51 1011.00 1010.43 1009.94 1009.55 1009.25 1008.81 1008.31 1007.70 1007.02 1006.34 1005.92 1005.58 1005.07
1014.85 1014.97 1015.18 1015.25 1015.29 1015.27 1015.29 1015.26 1015.22 1015.57 1015.70 1015.65 1015.33 1015.40 1015.41 1015.34 1015.17 1014.94 1014.70 1014.39 1014.35 1014.29 1014.51 1014.40 1014.09 1013.61 1013.13 1012.73 1012.35 1011.94 1011.43 1010.84 1010.31 1009.79 1009.41 1009.04 1008.53 1008.05 1007.41 1006.75 1006.15 1005.75 1005.19
1014.78 1014.94 1015.09 1015.20 1015.23 1015.25 1015.31 1015.32 1015.38 1015.46 1015.93 1016.03 1015.80 1015.46 1015.38 1015.25 1015.17 1015.03 1014.88 1014.97 1014.95 1014.83 1014.73 1014.58 1014.38 1014.06 1013.67 1013.16 1012.77 1012.32 1011.77 1011.35 1010.92 1010.40 1009.87 1009.35 1008.87 1008.36 1007.62 1007.00 1006.44 1005.85 1005.28
1014.62 1014.63 1014.87 1015.14 1015.25 1015.42 1015.47 1015.52 1015.60 1015.79 1015.98 1015.98 1015.86 1015.72 1015.42 1015.28 1015.39 1015.33 1015.19 1015.09 1014.99 1014.87 1014.74 1014.59 1014.37 1014.09 1013.81 1013.34 1013.05 1012.70 1012.25 1011.77 1011.35 1010.81 1010.24 1009.63 1008.92 1008.34 1007.70 1007.07 1006.36 1005.67 1005.06
1014.64 1014.70 1014.75 1015.14 1015.32 1015.51 1015.62 1015.68 1015.82 1016.00 1016.13 1016.12 1015.98 1015.55 1015.39 1015.41 1015.35 1015.32 1015.25 1014.99 1014.84 1014.55 1014.33 1014.16 1014.06 1013.87 1013.71 1013.61 1013.28 1013.00 1012.69 1012.15 1011.72 1011.21 1010.53 1009.90 1009.21 1008.29 1007.59 1006.96 1006.29 1005.60 1005.00
1014.41 1014.76 1015.00 1015.20 1015.51 1015.68 1015.79 1015.86 1015.91 1015.97 1016.01 1015.95 1015.76 1015.37 1015.04 1015.21 1015.19 1015.18 1014.92 1014.73 1014.47 1014.24 1013.91 1013.61 1013.61 1013.51 1013.34 1013.31 1013.19 1012.94 1012.60 1012.28 1011.73 1011.25 1010.65 1010.01 1009.29 1008.49 1007.69 1006.90 1006.19 1005.43 1004.76
1014.34 1014.76 1015.13 1015.19 1015.37 1015.56 1015.68 1015.75 1015.79 1015.81 1015.85 1015.79 1015.68 1015.45 1015.31 1015.39 1015.11 1014.87 1014.66 1014.29 1014.15 1013.83 1013.49 1013.21 1013.06 1012.94 1012.77 1012.81 1012.83 1012.83 1012.68 1012.34 1012.10 1011.64 1010.82 1009.92 1009.11 1008.39 1007.70 1006.85 1006.03 1005.15 1004.36
1014.35 1014.84 1015.17 1015.24 1015.29 1015.47 1015.75 1015.85 1015.79 1015.77 1015.68 1015.65 1015.64 1015.53 1015.42 1015.17 1014.97 1014.61 1014.20 1014.07 1013.91 1013.61 1013.30 1013.17 1012.86 1012.69 1012.59 1012.61 1012.66 1012.54 1012.27 1012.10 1011.80 1011.06 1010.54 1009.90 1009.11 1008.23 1007.44 1006.53 1005.64 1004.84 1004.01
1013.91 1014.33 1014.81 1015.14 1015.30 1015.52 1015.63 1015.77 1015.83 1015.75 1015.64 1015.59 1015.56 1015.43 1015.06 1014.91 1014.83 1014.55 1014.15 1013.93 1013.74 1013.48 1013.21 1012.99 1012.81 1012.61 1012.51 1012.47 1012.39 1012.07 1011.74 1011.59 1011.22 1010.77 1010.21 1009.54 1008.77 1007.95 1007.07 1006.15 1005.40 1004.63 1003.79
1013.99 1014.25 1014.67 1014.89 1015.16 1015.33 1015.44 1015.51 1015.73 1015.61 1015.57 1015.50 1015.34 1015.32 1015.23 1014.98 1014.77 1014.58 1014.19 1013.74 1013.47 1013.19 1012.97 1012.66 1012.47 1012.27 1012.24 1012.21 1012.01 1011.64 1011.35 1011.05 1010.70 1010.30 1009.93 1009.10 1008.31 1007.35 1006.56 1005.87 1005.11 1004.42 1003.64
Wind_Speed
8 10 11 9 8 7 8 9 9 6 7 9 10 10 10 10 10 9 7 7 9 7 6 6 7 5 4 4 4 4 5 4 4 4 3 2 5 11 9 13 10 10 8
10 9 10 9 9 10 10 10 9 10 7 8 8 8 9 10 10 11 10 9 10 8 9 8 8 5 7 6 5 6 5 5 5 6 3 3 6 6 9 11 9 8 8
10 11 10 9 7 8 8 9 7 7 9 7 7 8 9 9 9 10 11 11 10 10 7 7 8 5 6 4 5 5 3 3 4 3 4 3 3 2 2 4 7 9 6
5 3 3 4 5 5 5 4 5 7 8 8 8 9 8 7 9 10 11 10 7 4 4 6 7 8 10 8 7 8 5 5 3 4 3 3 4 3 2 3 3 3 5
8 7 6 4 4 4 3 2 2 2 1 4 5 6 5 5 5 8 10 7 7 8 4 8 10 14 14 12 6 7 5 5 4 4 5 3 3 3 4 4 7 7 7
8 7 6 7 7 5 5 5 5 5 5 5 6 4 4 4 7 8 3 6 11 14 13 11 10 10 12 13 15 13 8 6 4 3 8 6 11 4 4 4 5 4 5
7 6 6 6 7 6 6 6 7 6 5 6 5 5 5 5 7 6 6 4 7 9 10 7 4 5 8 6 10 13 13 14 10 4 10 13 11 8 7 9 8 8 11
7 6 6 6 6 6 7 6 6 5 6 5 6 6 5 4 8 3 6 4 5 7 7 7 6 8 6 8 9 9 9 8 10 10 12 16 12 9 8 10 10 9 5
6 6 6 6 6 6 6 6 4 5 5 5 4 6 7 8 14 8 4 3 4 6 5 6 7 7 6 8 8 9 7 8 8 14 16 19 17 16 7 4 6 6 10
4 4 3 4 4 4 3 4 3 3 4 5 6 6 10 8 13 16 4 2 4 4 5 6 5 5 6 6 1 3 5 5 4 4 5 11 16 16 16 14 8 9 9
3 3 2 2 3 2 2 3 3 4 5 6 6 5 6 6 8 12 11 5 2 3 3 3 1 5 6 3 5 4 6 5 6 5 5 6 6 7 7 8 11 13 13
2 1 0 1 1 2 4 4 5 6 6 6 6 5 4 4 6 8 10 7 7 4 4 3 4 8 9 8 5 9 11 7 4 4 5 7 7 8 8 8 11 12 13
3 3 3 4 4 5 5 5 4 4 5 4 4 4 4 5 5 8 8 8 7 4 3 6 11 12 10 8 8 10 7 3 3 4 6 8 8 8 8 8 10 14 16
5 6 5 6 6 5 4 4 4 3 4 4 4 4 4 4 4 4 4 5 6 6 7 6 7 10 10 9 7 6 3 3 3 6 7 8 7 7 8 8 10 9 10
6 4 5 5 5 4 3 3 2 1 2 1 1 0 3 5 6 6 4 5 4 4 7 3 4 4 5 5 4 5 4 4 4 5 7 8 7 7 8 7 8 10 11
5 3 3 3 2 3 3 4 2 4 6 5 4 2 1 4 8 11 9 7 6 5 2 3 4 4 5 5 5 4 3 4 4 4 5 6 7 7 7 7 6 9 11
6 4 3 3 3 3 3 4 4 6 9 10 8 12 6 1 7 9 10 8 6 2 5 5 5 5 5 6 5 5 4 5 5 4 4 5 6 7 9 7 7 7 9
5 7 4 3 3 3 2 1 1 2 2 3 7 8 8 8 7 8 9 5 6 6 4 5 7 6 7 5 6 5 6 6 6 6 6 7 6 6 7 7 7 7 9
5 4 4 3 2 2 3 4 3 4 4 1 3 4 4 6 8 7 8 4 3 3 3 4 4 5 6 6 7 8 8 7 6 7 7 7 7 7 8 7 7 9 7
5 9 5 4 3 4 4 4 5 5 3 1 0 2 3 3 3 3 3 2 2 1 1 2 3 4 3 5 4 5 5 6 8 8 8 8 8 8 8 9 7 9 7
4 4 6 4 3 3 3 3 3 4 2 2 3 3 5 2 2 1 2 2 3 3 4 3 2 2 2 4 4 4 5 6 6 7 9 10 10 9 9 9 10 9 9
5 5 4 4 3 3 2 2 2 3 3 2 2 3 6 2 2 3 3 4 4 4 4 4 4 4 3 2 2 4 4 5 6 8 8 7 8 9 9 10 10 10 9
4 4 3 3 4 5 3 3 3 2 1 1 3 2 2 2 3 3 4 4 3 4 4 3 3 4 2 2 2 3 5 5 5 8 8 8 8 8 8 9 10 11 10
4 5 5 4 4 3 3 2 1 2 2 3 3 2 2 3 4 5 4 4 4 4 4 3 2 3 1 2 2 4 4 3 6 7 9 8 8 9 9 9 9 11 11
4 7 5 4 3 3 4 3 2 2 3 3 2 2 4 5 5 5 5 3 4 4 4 1 1 3 3 2 4 6 5 8 7 9 7 8 9 11 10 9 9 9 10
5 6 5 5 4 4 4 4 3 2 2 1 2 3 4 4 3 3 4 4 4 5 4 2 2 2 0 2 5 7 7 9 9 9 7 6 7 8 8 10 12 9 10
Wind_Direction
194 209 206 205 194 190 197 225 231 197 200 194 205 212 215 220 228 206 212 196 208 214 226 210 226 196 223 205 194 185 193 196 202 295 252 253 204 217 217 215 215 205 196
201 191 197 199 198 206 211 213 222 235 217 210 204 213 217 216 204 202 204 205 210 216 225 223 225 211 214 226 205 219 207 186 195 215 252 246 226 227 219 209 214 205 197
178 187 199 208 201 212 212 219 212 224 239 229 207 214 214 215 208 206 204 202 204 214 220 223 242 222 234 231 228 231 234 220 200 229 243 262 246 230 161 209 210 220 209
89 83 233 217 207 227 230 221 235 237 233 233 224 223 219 210 213 216 214 217 200 85 15 282 248 221 229 215 214 223 214 217 204 207 245 231 233 254 219 167 207 220 207
83 72 47 95 97 97 99 97 57 7 13 235 226 229 233 223 219 223 236 155 124 93 354 247 260 244 223 224 219 228 195 218 220 234 255 230 208 184 203 198 210 217 227
70 70 64 59 52 46 50 45 34 23 30 42 25 2 309 269 289 265 267 155 162 178 200 226 243 252 237 230 220 230 220 206 207 210 269 246 251 206 169 208 220 203 238
78 63 67 62 60 47 44 45 39 29 17 17 6 352 333 313 306 283 177 200 186 207 220 239 260 268 215 228 238 240 237 222 196 214 263 262 266 239 247 229 218 225 234
65 57 52 56 44 31 35 35 35 28 26 26 17 7 351 337 1 278 195 197 195 212 233 251 257 255 212 219 242 244 237 235 221 226 232 253 242 242 232 225 220 232 257
58 51 47 49 39 34 33 22 13 17 7 1 349 353 357 355 356 317 264 233 236 242 239 244 248 264 273 231 225 245 248 248 242 232 228 239 251 257 228 195 227 225 248
63 59 67 52 52 51 38 8 4 19 12 360 6 16 55 72 42 35 342 279 281 281 280 277 56 106 50 37 212 244 245 260 251 264 247 254 253 257 249 233 247 229 237
75 57 67 51 80 87 31 16 357 27 56 50 49 52 57 40 29 37 39 47 22 348 355 352 41 345 352 326 206 206 218 229 249 249 254 260 251 236 240 230 223 230 244
88 125 86 264 307 12 32 13 58 74 61 38 40 22 10 2 37 24 26 32 20 16 350 331 308 310 314 296 270 239 237 235 245 253 264 267 260 254 244 239 237 234 239
53 5 344 17 32 49 55 84 61 56 63 45 35 16 354 352 355 359 356 356 4 10 332 311 309 314 313 304 303 301 297 238 226 239 255 260 256 259 265 263 259 251 249
84 73 68 82 70 54 53 75 99 66 53 42 25 7 343 345 341 348 338 342 344 343 337 319 301 291 283 279 308 289 292 248 244 265 267 268 263 257 252 251 262 261 259
100 97 83 80 76 67 61 101 130 73 134 85 279 273 353 344 341 335 313 334 338 338 327 324 353 350 345 339 334 308 311 317 287 284 287 274 258 260 267 276 265 269 263
105 106 95 91 67 59 53 28 283 43 21 26 40 129 275 256 347 357 15 3 347 346 45 353 346 349 351 337 340 331 326 319 297 308 306 315 296 283 278 276 268 274 274
120 144 105 88 54 52 44 47 20 3 45 63 63 66 64 318 17 13 10 19 52 43 32 10 2 360 348 346 344 337 320 320 304 309 308 322 326 330 318 293 274 273 277
122 138 136 143 102 71 62 350 344 77 71 3 10 24 33 58 57 36 19 30 34 33 25 8 1 352 353 355 352 349 337 346 346 334 335 330 323 325 324 323 330 338 318
127 120 137 114 109 93 42 44 38 105 110 99 12 356 356 34 24 24 34 62 36 11 1 359 345 350 355 352 357 352 352 351 348 343 340 335 328 325 317 309 312 307 293
144 139 134 122 89 69 56 72 62 97 100 103 63 274 311 38 21 349 11 26 13 293 274 313 321 329 341 359 349 341 343 348 347 340 329 320 317 315 311 310 307 308 299
145 136 149 98 87 83 108 99 99 90 137 235 273 276 307 82 250 272 293 310 298 303 288 267 276 301 315 319 340 333 332 329 334 332 328 324 320 314 313 308 307 304 300
152 141 142 145 116 102 130 102 58 56 46 28 314 299 349 22 357 303 261 275 288 283 279 272 273 262 245 261 299 311 315 311 324 325 313 306 304 309 309 311 307 303 301
137 132 118 141 152 137 123 120 116 92 75 15 345 355 359 336 319 282 260 257 281 304 314 327 295 291 306 306 336 318 310 313 312 309 300 296 297 300 303 299 298 300 300
143 172 172 177 159 149 109 128 85 69 100 36 19 17 343 314 311 306 285 264 287 313 320 324 346 304 351 83 346 304 296 317 316 299 303 290 286 292 298 298 297 293 286
133 150 166 172 163 128 150 140 121 97 75 58 23 343 329 329 328 327 329 300 290 293 313 314 119 101 98 357 318 327 322 317 293 301 298 290 281 286 285 290 307 309 307
160 142 155 151 146 156 157 139 139 124 83 52 7 342 344 349 342 316 310 309 287 292 325 216 191 148 57 305 328 332 333 324 320 305 301 287 287 292 299 302 303 303 296